"Pseudo-MPEC" for P113j4S

Created 2020 Aug 15 11:07:44 UT using Find_Orb

Click here for an explanation of pseudo-MPECs

 
 Astrometry: 
     P113j4S  C2020 07 29@J)xE\*0:TBYuG9]kCE/BZN@_Astrometry`i9L%C6?Q,;Re6y$sF51
     P113j4S  C2020 07 29jk5en1k(`2^EL?hredacted;eEmbclick[g:A(l,sEeFiA8Y,`jxF51
     P113j4S  C2020 07 29hPdPjE0j2r%S2F5X-.Wr/G9Gy-pQO!o/Q`hereUopy[BY4/%Jg22F51
     P113j4S  C2020 07 30y^AFQBLQ)v(XwxB(8wR.P3P/_i'Ul:4E0,v:(YLZWnforIEnWP\aF51
     P113j4S  C2020 07 30_8!(\8dRRBQcNN#0-)DxagwUxMk9g):o!v-f894k'bs^MZhqx@X?F51
     P113j4S  C2020 07 30=hexplanationqk302=%'!i^n\#(M^ECrZeC2+V+xG1gY(l;Gm*_F51

Station data:
(F51) Pan-STARRS 1, Haleakala  (N20.707235 W156.255910)  US/Hawaii.
   Observers N. Primak, A. Schultz, S. Watters, J. Thiel, T. Goggia. Measurer
   PS1 Science Consortium. 1.8-m Ritchey-Chrétien + CCD.

Orbital elements:  P113j4S
   Perihelion 2020 Apr 24.006409 +/- 101 TT =  0:09:13 (JD 2458963.506409)
Epoch 2020 Jul 30.0 TT = JDT 2459060.5   Earth MOID: 0.6305   AutoNEOCP
M  24.25787634 +/- 43               (J2000 ecliptic)
n   0.25009772 +/- 0.221            Peri.  282.10296 +/- 90
a   2.49495599 +/- 1.45             Node   337.31372 +/- 3.9
e   0.4306790 +/- 0.264             Incl.   28.34790 +/- 14
P   3.94                   H 20.7   G  0.15   U 11.7  SR
q 1.42043081 +/- 0.451    Q 3.56948118 +/- 33.8
From 6 observations 2020 July 29-30 (24.0 hr); mean residual 0".12
Residuals in arcseconds: 
200729 F51  .04+  .15+    200729 F51  .06+  .15-    200730 F51  .19-  .13-    
200729 F51  .10-  .00     200730 F51  .04+  .06-    200730 F51  .15+  .20+    

Ephemerides (geocentric):
Date (UTC) HH   RA              Dec         delta   r     elong  mag " sig PA
---- -- -- --  -------------   -----------  ------ ------ -----  --- ---- ---
2020 08 15 11  22 50 24.647   -19 01 18.34  .75833 1.7509 162.5 21.9 6221  32
2020 08 15 12  22 50 18.887   -19 00 31.01  .75841 1.7511 162.6 21.9 6259  32
2020 08 15 13  22 50 13.128   -18 59 43.67  .75849 1.7513 162.6 21.9 6297  32
2020 08 15 14  22 50 07.369   -18 58 56.31  .75857 1.7515 162.7 21.9 6335  32
2020 08 15 15  22 50 01.609   -18 58 08.95  .75865 1.7517 162.7 21.9 6373  32
2020 08 15 16  22 49 55.849   -18 57 21.59  .75874 1.7519 162.8 21.9 6412  32
2020 08 15 17  22 49 50.089   -18 56 34.21  .75882 1.7521 162.8 21.9 6451  32
2020 08 15 18  22 49 44.330   -18 55 46.82  .75890 1.7523 162.9 21.9 6489  32
2020 08 15 19  22 49 38.569   -18 54 59.42  .75898 1.7525 163.0 21.9 6528  32
2020 08 15 20  22 49 32.809   -18 54 12.02  .75907 1.7527 163.0 21.9 6568  32
2020 08 15 21  22 49 27.049   -18 53 24.61  .75915 1.7529 163.1 21.9 6607  32
2020 08 15 22  22 49 21.289   -18 52 37.18  .75923 1.7531 163.1 21.9 6646  32
2020 08 15 23  22 49 15.529   -18 51 49.75  .75932 1.7533 163.2 21.9 6686  32
2020 08 16 00  22 49 09.769   -18 51 02.31  .75940 1.7535 163.2 21.9 6726  32
2020 08 16 01  22 49 04.008   -18 50 14.87  .75949 1.7537 163.3 21.9 6765  32
2020 08 16 02  22 48 58.248   -18 49 27.41  .75958 1.7539 163.4 21.9 6805  32
2020 08 16 03  22 48 52.488   -18 48 39.94  .75966 1.7541 163.4 21.9 6846  32
2020 08 16 04  22 48 46.728   -18 47 52.47  .75975 1.7543 163.5 21.9 6886  32
2020 08 16 05  22 48 40.968   -18 47 04.99  .75984 1.7545 163.5 21.9 6926  32
2020 08 16 06  22 48 35.208   -18 46 17.50  .75992 1.7547 163.6 21.9 6967  32
2020 08 16 07  22 48 29.448   -18 45 30.00  .76001 1.7549 163.6 21.9 7008  32
2020 08 16 08  22 48 23.688   -18 44 42.50  .76010 1.7551 163.7 21.9 7049  32
2020 08 16 09  22 48 17.928   -18 43 54.98  .76019 1.7553 163.7 21.9 7090  32
2020 08 16 10  22 48 12.169   -18 43 07.46  .76028 1.7555 163.8 21.9 7131  32
2020 08 16 11  22 48 06.409   -18 42 19.93  .76037 1.7557 163.9 21.9 7172  32
2020 08 16 12  22 48 00.650   -18 41 32.39  .76046 1.7559 163.9 21.9 7214  32
2020 08 16 13  22 47 54.891   -18 40 44.84  .76055 1.7561 164.0 21.9 7255  32
2020 08 16 14  22 47 49.132   -18 39 57.29  .76065 1.7563 164.0 21.9 7297  32
2020 08 16 15  22 47 43.374   -18 39 09.73  .76074 1.7565 164.1 21.9 7339  32
2020 08 16 16  22 47 37.615   -18 38 22.16  .76083 1.7567 164.1 21.9 7381  32
2020 08 16 17  22 47 31.857   -18 37 34.58  .76092 1.7569 164.2 21.9 7424  32
2020 08 16 18  22 47 26.099   -18 36 47.00  .76102 1.7572 164.3 21.9 7466  32
2020 08 16 19  22 47 20.341   -18 35 59.40  .76111 1.7574 164.3 21.9 7509  32
2020 08 16 20  22 47 14.584   -18 35 11.80  .76121 1.7576 164.4 21.9 7551  32
2020 08 16 21  22 47 08.827   -18 34 24.20  .76130 1.7578 164.4 21.9 7594  32
2020 08 16 22  22 47 03.070   -18 33 36.58  .76140 1.7580 164.5 21.9 7637  32
2020 08 16 23  22 46 57.314   -18 32 48.96  .76149 1.7582 164.5 21.9 7680  32
2020 08 17 00  22 46 51.558   -18 32 01.33  .76159 1.7584 164.6 21.9 7724  32
2020 08 17 01  22 46 45.802   -18 31 13.69  .76169 1.7586 164.6 21.9 7767  32
2020 08 17 02  22 46 40.047   -18 30 26.05  .76178 1.7588 164.7 21.9 7811  32
2020 08 17 03  22 46 34.292   -18 29 38.40  .76188 1.7590 164.8 21.9 7855  32
2020 08 17 04  22 46 28.537   -18 28 50.74  .76198 1.7592 164.8 21.9 7899  32
2020 08 17 05  22 46 22.783   -18 28 03.08  .76208 1.7594 164.9 21.9 7943  32
2020 08 17 06  22 46 17.029   -18 27 15.40  .76218 1.7596 164.9 21.9 7987  32
2020 08 17 07  22 46 11.276   -18 26 27.73  .76228 1.7598 165.0 21.9 8031  32
2020 08 17 08  22 46 05.523   -18 25 40.04  .76238 1.7600 165.0 21.9 8076  32
2020 08 17 09  22 45 59.771   -18 24 52.35  .76248 1.7602 165.1 21.9 8121  32
2020 08 17 10  22 45 54.019   -18 24 04.65  .76258 1.7604 165.1 21.9 8166  32